Terminal Aerodrome Forecast
Issued by NWS Milwaukee/Sullivan, WI

Home | Current Version | Previous Version | Text Only | Print | Product List | Glossary On
Versions: 1 2 3 4 5 6 7 8 9 10 11 12 13 14 15 16 17 18 19 20 21 22 23 24 25 26 27 28 29 30 31 32 33 34 35 36
000
FTUS43 KMKX 290520
TAFMSN
TAF
KMSN 290520Z 2906/3006 14004KT P6SM FEW090
     FM290800 VRB03KT 3SM BR SCT003
     FM291100 VRB03KT 1SM BR BKN003
     FM291400 14004KT 3SM BR BKN050
     FM291500 14005KT P6SM SCT070
     FM300300 00000KT P6SM SCT090=

USA.gov is the U.S. government's official web portal to all federal, state and local government web resources and services.